Tracking 31027 objects as of 19-Jul-2025
HD Live streaming from Space Station
objects crossing your sky now

RUBIN 9.1/RUBIN 9.2/PSLV

Track RUBIN 9.1/RUBIN 9.2/PSLV now!
10-day predictions
RUBIN 9.1/RUBIN 9.2/PSLV is classified as:


NORAD ID: 35936
Int'l Code: 2009-051F
Perigee: 716.5 km
Apogee: 792.9 km
Inclination: 98.3 °
Period: 99.8 minutes
Semi major axis: 7125 km
RCS: 5.72 m2 (large)
Launch date: September 23, 2009
Source: Germany (GER)
Launch site: SRIHARIKOTA (SRI)

RUBIN 9.1 & RUBIN 9.2 are demonstration payloads for the Automatic Identification System, a communications network used to track and identify shipping vessels."
Your satellite tracking list
STARLINK-5403
Track 1 satellite(s)




NASA's NSSDC Master Catalog

Two Line Element Set (TLE):
1 35936U 09051F   25199.81558097  .00000188  00000-0  67621-4 0  9993
2 35936  98.2914 126.3806 0053581 351.2962   8.7294 14.43310500832472
Source of the keplerian elements: AFSPC